[[{"header":{"parameterUnit":"m.s-1","parameterCategory":1,"la1":30.2991,"la2":30.254,"lo1":-89.0895,"lo2":-89.0444,"dy":0.0017,"dx":0.0017,"nx":28,"ny":28,"refTime":"2025-08-03T09:00:00:Z","depth":0,"parameterNumber":2,"parameterNumberName":"U-component_of_WINDS"},"data":[0,0,0,0,0,0,0,0,0,0,0,0,0,0,0,0,0,0,0,0,0,0,0,0,0,0,0,0,0,0,0,0,0,0,0,0,0,0,0,0,0,0,0,0,0,0,0,0,0,0,0,0,0,0,0,0,0,0,1.5416,1.5417,0,1.5471,1.5472,1.5472,1.5474,1.5473,1.5472,1.5472,1.5532,1.5534,1.5536,0,0,0,0,0,0,0,0,0,0,0,0,0,1.5317,1.5319,1.5416,1.5417,1.5418,1.5471,1.5472,1.5472,1.5474,1.5473,1.5472,1.5472,1.5531,1.5534,1.5537,0,0,0,0,0,0,0,0,0,0,0,0,0,1.5365,1.5319,1.5416,1.5425,1.5426,1.5471,1.5472,1.5473,1.5474,1.5473,1.5472,1.5471,1.553,1.5534,1.5537,1.5578,0,0,1.5547,1.5549,0,0,0,0,0,0,0,0,1.5362,1.5368,1.5423,1.5424,1.5426,1.5464,1.5459,1.5508,1.5474,1.5456,1.5472,1.5471,1.5511,1.5515,1.5528,1.5581,1.5583,1.5547,1.5549,1.5551,1.5552,0,0,0,0,0,0,0,1.5359,1.5366,1.5438,1.5424,1.5425,1.5427,1.5433,1.5468,1.5489,1.5458,1.5458,1.5464,1.5511,1.5525,1.553,1.5584,1.5547,1.555,1.5552,1.5554,1.5674,1.5675,0,0,0,0,0,0,1.5353,1.5363,1.5436,1.544,1.5391,1.543,1.5436,1.5453,1.5488,1.5492,1.5465,1.5464,1.552,1.5526,1.5532,1.5582,1.5551,1.5554,1.5556,1.5673,1.5674,1.5676,0,0,0,0,0,0,1.5351,1.536,1.5434,1.5402,1.5411,1.5432,1.5452,1.5455,1.5468,1.5494,1.5498,1.5475,1.5519,1.5527,1.5566,1.5584,1.5556,1.5559,1.5672,1.5673,1.5675,1.5683,0,0,0,0,0,0,1.5348,1.5359,1.5374,1.5402,1.5413,1.5467,1.5453,1.5457,1.5474,1.5473,1.5504,1.5508,1.5519,1.5561,1.557,1.5588,1.5561,1.567,1.5672,1.5675,1.5682,1.5685,1.5688,0,0,0,0,0,1.5345,1.5375,1.5374,1.5383,1.5432,1.5468,1.5474,1.5485,1.5475,1.5491,1.5507,1.5507,1.5581,1.5565,1.5575,1.5595,1.5669,1.5672,1.5674,1.568,1.5685,1.5688,0,0,0,0,0,0,1.5349,1.5379,1.5379,1.5418,1.544,1.5468,1.5488,1.5489,1.5515,1.5514,1.5527,1.5534,1.5573,1.5588,1.557,1.5637,1.5624,1.5629,1.5625,1.563,1.5633,1.5629,1.5564,0,0,0,0,0,1.5355,1.538,1.5405,1.5438,1.5449,1.5466,1.5482,1.5489,1.5513,1.5522,1.5541,1.5566,1.5594,1.5613,1.5641,1.5684,1.5691,1.5703,1.5706,1.5709,1.5712,1.5737,1.5742,1.5685,1.5684,1.5684,0,0,1.5367,1.5386,1.5401,1.5439,1.5457,1.5484,1.5474,1.5503,1.5524,1.5527,1.5565,1.558,1.5608,1.5649,1.5669,1.5663,1.573,1.5712,1.5714,1.5716,1.574,1.5746,1.575,1.5686,1.5686,1.5686,0,0,1.5402,1.5419,1.5448,1.5466,1.5493,1.5504,1.5511,1.5539,1.5548,1.5586,1.5589,1.5615,1.5664,1.5684,1.57,1.5744,1.5745,1.5753,1.577,1.5794,1.5798,1.5802,1.5818,1.5823,1.5756,1.5756,1.5756,0,1.5414,1.5454,1.5464,1.5492,1.5509,1.5512,1.5543,1.556,1.5595,1.5607,1.56,1.5662,1.5681,1.5727,1.5737,1.5751,1.576,1.5749,1.5796,1.5801,1.5805,1.582,1.5826,1.5757,1.5757,1.5757,1.5757,0,1.5467,1.5495,1.5516,1.5548,1.5567,1.5597,1.5612,1.5631,1.5636,1.5648,1.5688,1.571,1.5743,1.5755,1.576,1.5802,1.5797,1.5793,1.5781,1.5811,1.5825,1.5831,1.5758,1.5758,1.5758,1.5758,0,0,1.5507,1.5544,1.5551,1.5566,1.5596,1.5618,1.5648,1.5679,1.5695,1.5719,1.5745,1.5787,1.5783,1.5802,1.581,1.5831,1.5864,1.5824,1.5825,1.583,1.5911,1.5914,1.592,1.5865,1.5866,1.5867,1.5909,0,1.5545,1.5597,1.5607,1.5653,1.5679,1.5683,1.5709,1.5731,1.5744,1.5769,1.5784,1.5813,1.5806,1.5818,1.5838,1.5855,1.588,1.5852,1.589,1.5891,1.5882,1.5928,1.5931,1.5969,1.5915,1.5916,1.5916,0,1.5597,1.5621,1.5669,1.5696,1.5707,1.5731,1.576,1.5783,1.5809,1.5817,1.5838,1.5843,1.5876,1.5862,1.5908,1.5889,1.5905,1.5916,1.5918,1.5921,1.5905,1.5933,1.5982,1.5988,1.5925,1.5925,1.5924,0,1.5621,1.5666,1.57,1.5713,1.5745,1.5761,1.5775,1.58,1.5817,1.5843,1.5855,1.5885,1.5902,1.5925,1.5939,1.5928,1.5984,1.5971,1.5992,1.5992,1.6004,1.6003,1.6056,1.6015,1.6015,1.6015,1.6014,0,1.5662,1.5692,1.5711,1.5733,1.5766,1.5778,1.5811,1.5825,1.5847,1.5872,1.5878,1.5901,1.5918,1.5945,1.5956,1.5992,1.6,1.6008,1.6011,1.6007,1.6006,1.6018,1.6015,1.6016,1.6016,1.6015,1.6015,0,1.5694,1.5708,1.5746,1.5773,1.5781,1.5804,1.5828,1.5849,1.5862,1.5894,1.5902,1.5923,1.5955,1.5971,1.6011,1.6018,1.6059,1.606,1.605,1.6051,1.6071,1.6069,1.6133,1.6142,1.6095,1.6096,1.6096,0,1.572,1.5742,1.5771,1.5788,1.5802,1.5829,1.5847,1.586,1.5879,1.591,1.5928,1.5959,1.5985,1.6035,1.6054,1.6085,1.6087,1.6107,1.6091,1.6087,1.6087,1.6085,1.6087,1.611,1.611,1.6111,1.6111,0,1.5763,1.5769,1.5794,1.5822,1.5843,1.5866,1.5889,1.5902,1.5919,1.594,1.5972,1.5992,1.6032,1.6063,1.6095,1.6111,1.6114,1.6116,1.6122,1.6119,1.6112,1.6116,1.6057,1.6114,1.6114,1.6114,1.6114,1.6113,1.5793,1.5813,1.5836,1.5864,1.5883,1.5904,1.5925,1.5941,1.5967,1.5999,1.6006,1.6039,1.6065,1.6108,1.6125,1.6152,1.6148,1.6157,1.616,1.6162,1.6162,1.6108,1.6158,1.6158,1.6158,1.6158,1.6158,0,1.5836,1.5852,1.5877,1.5908,1.5931,1.5931,1.5956,1.5975,1.6004,1.6027,1.6052,1.6088,1.6119,1.6141,1.6172,1.6189,1.6192,1.6197,1.6196,1.62,1.6164,1.6155,1.6195,1.6195,1.6195,1.6195,1.6195,1.6195,1.5861,1.5896,1.5905,1.5948,1.5964,1.5996,1.601,1.603,1.6048,1.6088,1.6113,1.6127,1.615,1.6183,1.6211,1.6217,1.6228,1.6234,1.6239,1.6206,1.6202,1.6198,1.619,1.6236,1.6236,1.6272,1.6273,1.6273]},{"header":{"parameterUnit":"m.s-1","parameterCategory":1,"la1":30.2991,"la2":30.254,"lo1":-89.0895,"lo2":-89.0444,"dy":0.0017,"dx":0.0017,"nx":28,"ny":28,"refTime":"2025-08-03T09:00:00:Z","depth":0,"parameterNumber":3,"parameterNumberName":"V-component_of_WINDS"},"data":[0,0,0,0,0,0,0,0,0,0,0,0,0,0,0,0,0,0,0,0,0,0,0,0,0,0,0,0,0,0,0,0,0,0,0,0,0,0,0,0,0,0,0,0,0,0,0,0,0,0,0,0,0,0,0,0,0,0,1.6475,1.6476,0,1.656,1.6561,1.6562,1.6524,1.6522,1.652,1.6518,1.6605,1.6609,1.6613,0,0,0,0,0,0,0,0,0,0,0,0,0,1.6276,1.628,1.6475,1.6476,1.6477,1.656,1.6561,1.6562,1.6525,1.6522,1.652,1.6517,1.6604,1.6609,1.6614,0,0,0,0,0,0,0,0,0,0,0,0,0,1.6362,1.6281,1.6474,1.6468,1.6468,1.6559,1.6561,1.6562,1.6525,1.6522,1.6519,1.6516,1.6602,1.6608,1.6615,1.6717,0,0,1.6634,1.6637,0,0,0,0,0,0,0,0,1.6357,1.6369,1.6468,1.6469,1.6469,1.6528,1.6523,1.6614,1.6526,1.6504,1.6518,1.6515,1.6582,1.659,1.6613,1.6721,1.6724,1.6635,1.6639,1.6641,1.6643,0,0,0,0,0,0,0,1.6351,1.6365,1.6508,1.6469,1.647,1.646,1.6469,1.654,1.6559,1.6505,1.6503,1.6514,1.6582,1.6607,1.6615,1.6726,1.6634,1.664,1.6644,1.6647,1.6916,1.6919,0,0,0,0,0,0,1.6345,1.6361,1.6506,1.6511,1.6404,1.6466,1.6476,1.6513,1.6559,1.6563,1.6516,1.6511,1.6597,1.6607,1.6617,1.6736,1.6641,1.6647,1.6651,1.6912,1.6916,1.692,0,0,0,0,0,0,1.6341,1.6359,1.6502,1.6435,1.6452,1.6473,1.6514,1.6516,1.6541,1.6567,1.657,1.6538,1.6595,1.6608,1.6691,1.6739,1.665,1.6656,1.6909,1.6914,1.6918,1.6976,0,0,0,0,0,0,1.6336,1.6358,1.6398,1.6436,1.6456,1.6576,1.6517,1.652,1.6552,1.6547,1.6588,1.6592,1.6594,1.6682,1.6697,1.6746,1.6661,1.6904,1.6911,1.6917,1.697,1.6983,1.6994,0,0,0,0,0,1.6329,1.6412,1.64,1.6418,1.6507,1.6579,1.659,1.6591,1.6556,1.6595,1.6611,1.6591,1.6731,1.669,1.6708,1.6759,1.6901,1.6909,1.6916,1.6965,1.698,1.6993,0,0,0,0,0,0,1.638,1.6417,1.6404,1.6503,1.6537,1.6572,1.6622,1.6607,1.6653,1.6646,1.6645,1.6654,1.6739,1.6757,1.6711,1.6857,1.6811,1.6822,1.6842,1.6857,1.6868,1.6861,1.6666,0,0,0,0,0,1.6402,1.6458,1.6487,1.6571,1.6589,1.6603,1.6634,1.6631,1.6667,1.6682,1.6704,1.6739,1.6791,1.6825,1.6874,1.6973,1.6979,1.7016,1.7028,1.7037,1.7046,1.7095,1.7111,1.6945,1.6944,1.6944,0,0,1.645,1.6477,1.6513,1.6582,1.6609,1.6664,1.6616,1.6678,1.6719,1.6691,1.6769,1.6787,1.6826,1.6915,1.6956,1.6934,1.7094,1.7047,1.7054,1.7058,1.7104,1.712,1.7134,1.695,1.6949,1.6948,0,0,1.6564,1.6592,1.6662,1.6689,1.6729,1.6737,1.6754,1.679,1.68,1.6878,1.6857,1.6905,1.6996,1.7023,1.7048,1.7168,1.7149,1.7184,1.7244,1.7291,1.7304,1.7316,1.7355,1.7369,1.7193,1.7194,1.7194,0,1.6618,1.6702,1.67,1.6763,1.6792,1.6769,1.6838,1.6864,1.6919,1.6939,1.6913,1.7022,1.7047,1.7141,1.7169,1.7192,1.7209,1.7179,1.7303,1.7314,1.7325,1.7362,1.7377,1.7197,1.7197,1.7196,1.7196,0,1.6764,1.6822,1.6874,1.6925,1.696,1.7027,1.7033,1.7069,1.7061,1.7071,1.7149,1.7177,1.723,1.7252,1.7247,1.7343,1.7327,1.7302,1.7255,1.7344,1.7379,1.7393,1.7203,1.7201,1.72,1.7199,0,0,1.6915,1.6961,1.698,1.7,1.7041,1.7086,1.7149,1.7199,1.7228,1.7266,1.7316,1.7391,1.7366,1.7395,1.7392,1.7434,1.7522,1.7403,1.7404,1.7421,1.7625,1.7642,1.7658,1.751,1.7513,1.7515,1.762,0,1.7029,1.714,1.7138,1.724,1.7291,1.7267,1.7321,1.7351,1.7361,1.7405,1.7416,1.7467,1.7433,1.7449,1.749,1.7503,1.7562,1.7495,1.7555,1.7557,1.7543,1.7677,1.7696,1.7795,1.7634,1.7637,1.7638,0,1.7178,1.7218,1.7324,1.7353,1.7374,1.7423,1.7466,1.751,1.7542,1.7545,1.7576,1.7565,1.7626,1.7578,1.766,1.7615,1.7639,1.7648,1.7652,1.7656,1.7602,1.7682,1.7827,1.784,1.766,1.7659,1.7657,0,1.7272,1.7353,1.7426,1.7445,1.7481,1.7515,1.7532,1.7561,1.7589,1.7627,1.7645,1.769,1.7714,1.7748,1.7748,1.7714,1.783,1.7783,1.7833,1.7833,1.7857,1.7856,1.8005,1.7877,1.7877,1.7877,1.7877,0,1.7399,1.7464,1.7468,1.7513,1.7583,1.758,1.765,1.7663,1.7688,1.7733,1.7716,1.7758,1.7757,1.78,1.7801,1.7866,1.7878,1.7881,1.788,1.7881,1.788,1.7896,1.7888,1.7881,1.788,1.7879,1.7879,0,1.7517,1.7522,1.7599,1.7626,1.7634,1.7684,1.7706,1.7747,1.7754,1.7811,1.7824,1.7835,1.7884,1.7888,1.7945,1.7945,1.8024,1.8017,1.8013,1.801,1.8058,1.8053,1.8221,1.8241,1.8103,1.8104,1.8106,0,1.7596,1.7645,1.7676,1.7704,1.7722,1.7769,1.7797,1.7794,1.7824,1.7861,1.7897,1.7943,1.798,1.8059,1.8071,1.8113,1.8105,1.8161,1.8112,1.8109,1.8102,1.8098,1.8101,1.817,1.8172,1.8173,1.8174,0,1.7735,1.7734,1.7776,1.7817,1.785,1.7883,1.7913,1.7937,1.7938,1.7972,1.802,1.8049,1.8105,1.815,1.8191,1.8206,1.8189,1.819,1.8203,1.8203,1.8197,1.8197,1.8036,1.8186,1.8185,1.8184,1.8183,1.8183,1.7834,1.7874,1.7901,1.7946,1.7968,1.7995,1.8034,1.8044,1.8085,1.8129,1.8125,1.8178,1.8204,1.8257,1.8275,1.8315,1.8296,1.8316,1.832,1.8325,1.8328,1.8193,1.8323,1.8322,1.8322,1.8322,1.8322,0,1.7969,1.7984,1.8025,1.8066,1.8101,1.8082,1.8113,1.8143,1.8189,1.8215,1.8251,1.8305,1.8347,1.8362,1.8402,1.8431,1.8424,1.8442,1.8439,1.8441,1.8344,1.8327,1.8447,1.8447,1.8447,1.8447,1.8446,1.8446,1.8043,1.8109,1.811,1.8185,1.82,1.8251,1.8269,1.8294,1.8313,1.8374,1.8409,1.8417,1.8437,1.8479,1.8516,1.8519,1.8533,1.8554,1.8553,1.8462,1.8449,1.8437,1.8421,1.8558,1.8558,1.8646,1.8647,1.8648]}]]